Regional Weather Roundup
Issued by NWS

Home | Current Version | Previous Version | Text Only | Print | Product List | Glossary On
Versions: 1 2 3 4 5 6 7 8 9 10 11 12 13 14 15 16 17 18 19 20 21 22 23 24 25 26 27 28 29 30 31 32 33 34 35 36 37 38 39 40 41 42 43 44 45 46 47 48 49 50
682
ASHW40 PHFO 281243
RWRHI

WEATHER ROUNDUP FOR HAWAII
NATIONAL WEATHER SERVICE HONOLULU HI
200 AM HST TUE MAR 28 2017

THIS IS AN AUTOMATED REPORT THAT HAS NOT BEEN QUALITY CONTROLLED.

NOTE..."FAIR" INDICATES FEW OR NO CLOUDS BELOW 12,000 FEET WITH NO
SIGNIFICANT WEATHER AND/OR OBSTRUCTIONS TO VISIBILITY.

* - THESE SITES REPORT LIMITED FIELDS

HIZ001>004-281300-
KAUAI-NIIHAU-

CITY           SKY/WX    TMP DP  RH WIND       PRES   REMARKS
LIHUE APT      MOCLDY    74  68  81 E10       30.12S
PORT ALLEN*      N/A     70 N/A N/A NE6         N/A
POIPU*           N/A     73 N/A N/A NE6G13      N/A
PRINCEVILLE*     N/A     68 N/A N/A S2          N/A
KOKOLE POINT*  NOT AVBL
MOLOAA DAIRY*    N/A     73  68  83 SE7         N/A
WAIMEA HTS*      N/A     70  59  68 VRB1G7      N/A
PUU OPAE*      NOT AVBL
PUU LUA*       NOT AVBL
MAKAHA RIDGE*    N/A     64  63  94 CALM        N/A
$$

HIZ005>011-281300-
OAHU-

CITY           SKY/WX    TMP DP  RH WIND       PRES   REMARKS
HONOLULU       LGT RAIN  76  66  71 NE8       30.10F
KALAELOA       MOCLDY    72  66  81 NE5       30.11F
KANEOHE MCB    NOT AVBL
WHEELER FIELD  LGT RAIN  68  66  94 W3        30.10F
BELLOWS*         N/A    N/A N/A N/A NE18G24     N/A
KAHUKU*          N/A    N/A N/A N/A NE7G13      N/A
WHEELER*         N/A    N/A N/A N/A NW3         N/A
WAIANAE HARBOR   N/A    N/A N/A N/A E3          N/A
DILLINGHAM*      N/A     68  57  68 W1          N/A
KAHUKU TRN*      N/A     82  79  89 W6G14       N/A  HX  93
KAWAILOA*        N/A     70  64  83 E9G20       N/A
KII*             N/A     75  68  78 E13G18      N/A
MAKUA RANGE*     N/A     72  57  60 NW5G13      N/A
OAHU FOREST NW   N/A     66  63  88 CALM        N/A
SCHOFIELD BRK*   N/A     66  64  94 E1          N/A
SCHOFIELD S*   NOT AVBL
WAIANAE VLY*     N/A     72  63  73 NW2         N/A
KUAOKALA*        N/A     72   1   6 E9G15       N/A
HONOULIUULI*   NOT AVBL
MOKUOLOE IS*   NOT AVBL
PALEHUA*         N/A     64  63  94 NE9G15      N/A
WAIAWA PHB*    NOT AVBL
$$

HIZ012>013-281300-
MOLOKAI-

CITY           SKY/WX    TMP DP  RH WIND       PRES   REMARKS
MOLOKAI AIRPT  PTCLDY    70  64  81 CALM      30.12F
KALAUPAPA      NOT AVBL
MAKAPULAPAI*   NOT AVBL
MOLOKAI 1*     NOT AVBL
PUU ALII*        N/A     57  57 100 NE2G12      N/A
$$

HIZ016-281300-
KAHOOLAWE-

CITY           SKY/WX    TMP DP  RH WIND       PRES   REMARKS
KAHOOLAWE*     NOT AVBL
HAKIOAWA*        N/A     70  64  81 MISG        N/A
HONOKANAIA*      N/A     74  64  70 NE15G26   30.05F
KANELOA*         N/A     72  66  83 NE15G26   30.18
KEALIALALO*    NOT AVBL
LUA MAKIKA*    NOT AVBL
$$

HIZ014>015-281300-
LANAI-

CITY           SKY/WX    TMP DP  RH WIND       PRES   REMARKS
LANAI CITY     FAIR      64  62  93 E6        30.15F
LANAI 1*       NOT AVBL
$$

HIZ017>028-281300-
MAUI-

CITY           SKY/WX    TMP DP  RH WIND       PRES   REMARKS
KAHULUI        CLEAR     69  63  81 SE7       30.10F
KAPALUA-W MAUI NOT AVBL
HANA AIRPORT   MOCLDY    73  66  78 E5        30.14F
HANA*            N/A     75 N/A N/A E7G15       N/A
HALEAKALA SUMM   N/A     41  -8  12 SE14G29     N/A
MAALAEA BAY*     N/A     68 N/A N/A N7          N/A
HALEAKALA*     NOT AVBL
KAUPO GAP*       N/A     81  70  69 NW7G15      N/A
KULA 1*          N/A     45  36  70 E5          N/A
$$

HIZ023>026-281300-
BIG ISLAND OF HAWAII COAST AND LOWER SLOPES-

CITY           SKY/WX    TMP DP  RH WIND       PRES   REMARKS
KAILUA KONA    CLEAR     75  60  59 SE10      30.06F
HILO           CLOUDY    68  63  83 SW8       30.12F
HONOKAA*         N/A     64 N/A N/A VRB1        N/A
KAWAIHAE MWT*    N/A     75 N/A N/A SE1         N/A
KAWAIHAE*        N/A     75 N/A N/A SE2       30.07F
SOUTH POINT*     N/A     68 N/A N/A N14G20      N/A
UPOLU AIRPORT* NOT AVBL
KAMUELA*       MOSUNNY   55  54  94 E6        30.17F
HAKALAU*         N/A     46  36  66 S6G12       N/A
KALOKO-HONOKO*   N/A    N/A N/A N/A E5        30.05F
PALI 2*          N/A     75  70  83 SW8         N/A
KEALAKOMO*       N/A     72  66  83 N8          N/A
KAUPULEHU*       N/A     66  55  68 SE8         N/A
KAPAPALA*        N/A     58  53  85 NW5         N/A
LOWER KAHUKU*    N/A     55  52  88 N2G8        N/A
PUHE CS*         N/A     73  57  56 NE2         N/A
PUHO CS*         N/A     71  56  58 E3          N/A
PTA KEAMUKU*     N/A     57  48  72 CALM        N/A
WAIKOLOA*        N/A     66  55  68 E12G17      N/A
$$

HIZ027>028-281300-
BIG ISLAND OF HAWAII INTERIOR AND SUMMMITS-

CITY           SKY/WX    TMP DP  RH WIND       PRES   REMARKS
BRADSHAW FIELD CLOUDY    40  20  44 SE6       30.37F
MK VISITOR CEN   N/A     50 -27   3 E7          N/A
MAUNA KEA*       N/A     36 -31   5 E12         N/A  WCI  27
MAUNA LOA*       N/A     43 -40   2 MISG        N/A
MAUNA LOA 1*   NOT AVBL
PTA KIPUKA*      N/A     66  63  88 E3          N/A
PTA RANGE 17*    N/A     64  46  52 NE2G13      N/A
PTA WEST*        N/A     54  36  50 SE9G17      N/A
NENE CABIN*      N/A    N/A N/A N/A N5          N/A
AHUMOA*          N/A     45  41  87 E3          N/A
PTA PORTABLE*  NOT AVBL
PUU MALI*        N/A     48  34  57 SW8         N/A
$$

HIC003-281300-
NORTHWEST ISLANDS-

CITY           SKY/WX    TMP DP  RH WIND       PRES   REMARKS
MIDWAY ISLAND  CLOUDY    72  68  88 SE14      30.00F
MIDWAY NOS*      N/A     72 N/A N/A MISG      29.97F
FRENCH FRIGATE NOT AVBL
$$

PHZ110>124-180-281300-
BUOY REPORTS

STATION/POSITION TIME  TEMP    WIND        PRES    WAVE   SWELL
                       AIR SEA DIR/SP/G            HT/PER HT/DIR
                 (UTC) (F)     (DEG/KT/KT) (MB)    (FT/S) (FT/D)
BUOY 51001       1220   75 76  140/  6/ 12 1019.9
BUOY 51101       1150   75 76  130/  8/ 10 1020.6F   9/14   8/310
BUOY 51100       NOT AVBL
BUOY 51002       1220   77 78   70/ 19/ 25 1016.9
BUOY 51003       1150   77 78   80/ 12/ 14 1018.6F   9/14   8/310
BUOY 51004       1150      77   70/ 19/ 23 1017.8F  11/10   8/100
BARBERS PT BUOY  NOT AVBL
WAIMEA BAY BUOY  1202      76                N/A     6/14   5/320
KAILUA BAY BUOY  1204      76                N/A     7/10   2/100
LANAI BUOY       1215      78                N/A     5/14   3/260
BARBERS PT 2     NOT AVBL
PAUWELA MAUI     1209      76                N/A     6/15   3/320
HILO             1212      78                N/A     9/11   5/ 90
KANEOHE BAY BUOY 1225      75                N/A     5/ 9   2/ 50
HANALEI KAUAI    1222      78                N/A     7/14   7/310
KAHULUI HARBOR   1212   73 77   20/  3/  5 1019.0
HONOLULU HARBOR  1212   74 78   CALM  /  2 1019.7
KILO NALU        NOT AVBL
HILO HARBOR      1212   69 76  240/  8/ 10 1019.6
MOKUOLOE         1136   76 79   90/ 12/ 17 1019.6F
NAWILIWILI       1218   75      70/  9/ 11 1019.3
WHOTS BUOY       NOT AVBL
BUOY 51028       NOT AVBL
$$

......................KEY........................................
  SKY/WX - SKY CONDITIONS/PRESENT WEATHER
  TMP    - TEMPERATURE IN FAHRENHEIT
  DWPT   - DEWPOINT IN FAHRENHEIT
  RH     - RELATIVE HUMIDITY IN PERCENT
  WIND   - DIRECTION AND SPEED /MPH FOR ISLANDS...KTS FOR BUOYS/
  PRES   - MEAN SEA LEVEL PRESSURE IN INCHES OF HG
  VSB    - VISIBILITY IN MILES
  HX     - HEAT INDEX
  WCI    - WIND CHILL INDEX
  VRB    - VARIABLE WIND DIRECTION
  N/A    - NOT AVAILABLE




USA.gov is the U.S. government's official web portal to all federal, state and local government web resources and services.